Regional Weather Roundup
Issued by NWS Cleveland, OH

Home | Current Version | Previous Version | Graphics & Text | Print | Product List | Glossary On
Versions: 1 2 3 4 5 6 7 8 9 10 11 12 13 14 15 16 17 18 19 20 21 22 23 24 25 26 27 28 29 30 31 32 33 34 35 36 37 38 39 40 41 42 43 44 45 46 47 48 49 50
000
ASUS41 KCLE 232002
RWRCLE
OHIO REGIONAL WEATHER ROUNDUP
NATIONAL WEATHER SERVICE CLEVELAND, OH
300 PM EST MON JAN 23 2017

NOTE: "FAIR" INDICATES FEW OR NO CLOUDS BELOW 12,000 FEET WITH NO
SIGNIFICANT WEATHER AND/OR OBSTRUCTIONS TO VISIBILITY.

OHZ001>008-015>018-024>027-034-035-043-044-232100-
   NORTHWEST OHIO

CITY           SKY/WX    TMP DP  RH WIND       PRES   REMARKS
DEFIANCE       LGT RAIN  42  41  96 N8        29.63S
FINDLAY        CLOUDY    42  39  89 N13       29.58S FOG
TOLEDO EXPRESS LGT RAIN  42  42 100 NE5       29.63R
TOLEDO EXEC    CLOUDY    40  39  97 NE10      29.64R
LIMA           LGT RAIN  41  41 100 N10       29.58S FOG
$$

OHZ009>014-019>023-028>033-038-089-232100-
   NORTHEAST OHIO

CITY           SKY/WX    TMP DP  RH WIND       PRES   REMARKS
CLE-HOPKINS    CLOUDY    42  38  85 N10       29.59R
CLE-LAKEFRONT  CLOUDY    38  37  97 NE17      29.57R FOG
CUY CO. ARPT   PTSUNNY   45  41  87 NE17      29.58R
LORAIN-ELYRIA  CLOUDY    39  36  89 NE12      29.58R FOG
ASHTABULA      CLOUDY    44  41  89 N8        29.58S
AKRON-CANTON   LGT RAIN  46  41  82 E12G21    29.54R
WOOSTER        LGT RAIN  48  43  82 E12       29.54R
MANSFIELD      CLOUDY    46  45  96 N9        29.54R
YOUNGSTOWN     LGT RAIN  48  41  76 SE5       29.56R
$$

OHZ042-051>053-060>062-070>072-077>081-232100-
  SOUTHWEST OHIO

CITY           SKY/WX    TMP DP  RH WIND       PRES   REMARKS
CINC-COVINGTON CLOUDY    47  45  93 NW16      29.53S FOG
CINC-LUNKEN    CLOUDY    49  47  93 N10       29.54R FOG
HAMILTON       CLOUDY    49  46  90 N14G21    29.55S
DAYTON         LGT RAIN  44  43  96 N12       29.56S
WRIGHT-PAT AFB CLOUDY    46  46 100 N12       29.53F
DAYTON GENERAL LGT RAIN  46  44  93 N14       29.53S
WILMINGTON     LGT RAIN  49  47  93 N14       29.50S FOG
$$

OHZ036-037-039>041-045>050-054>059-063>069-073>076-082>088-232100-
  CENTRAL AND SOUTHEAST OHIO

CITY           SKY/WX    TMP DP  RH WIND       PRES   REMARKS
COLUMBUS       LGT RAIN  50  45  83 NE12G24   29.51R
OSU AIRPORT    LGT RAIN  48  48 100 N10       29.52R FOG
BOLTON FIELD   CLOUDY    48  46  93 N10       29.51S FOG
RICKENBACK AFB   N/A     49  46  90 N8        29.50S
NEWARK         CLOUDY    49  44  83 NE10      29.50R
MARION         LGT RAIN  46  44  93 N14       29.55R FOG
LANCASTER      LGT RAIN  49  45  86 NE10      29.50R FOG
ZANESVILLE     LGT RAIN  47  42  83 NE13      29.50S
NEW PHILLY     NOT AVBL
$$



USA.gov is the U.S. government's official web portal to all federal, state and local government web resources and services.